Regional Weather Roundup
Issued by NWS

Home | Current Version | Previous Version | Graphics & Text | Print | Product List | Glossary On
Versions: 1 2 3 4 5 6 7 8 9 10 11 12 13 14 15 16 17 18 19 20 21 22 23 24 25 26 27 28 29 30 31 32 33 34 35 36 37 38 39 40 41 42 43 44 45 46 47 48 49 50
000
ASUS43 KDTX 021010
RWRMI
MICHIGAN HOURLY REGIONAL WEATHER ROUNDUP
NATIONAL WEATHER SERVICE DETROIT/PONTIAC MI
600 AM EDT MON MAY 02 2016

NOTE: "FAIR" INDICATES FEW OR NO CLOUDS BELOW 12,000 FEET WITH NO
SIGNIFICANT WEATHER AND/OR OBSTRUCTION TO VISIBILITY.

MIZ047>049-052>055-059>063-066>070-074>076-081>083-021100-
SOUTHEAST LOWER MICHIGAN

CITY           SKY/WX    TMP DP  RH WIND       PRES   REMARKS
ADRIAN         CLOUDY    46  44  93 NE9       29.96R
ALMA           CLOUDY    41  37  83 N10       30.02S
ANN ARBOR      CLOUDY    46  44  93 N5        29.96R FOG
BAD AXE        CLOUDY    41  39  93 N8        30.01R
CARO           CLOUDY    42  40  93 N8        29.99S
DETROIT CITY   CLOUDY    47  44  90 N3        29.96R
DETROIT        CLOUDY    47  45  93 NW6       29.97R FOG
FLINT          CLOUDY    45  41  86 N9        29.99R
GROSSE ILE     CLOUDY    46  45  93 CALM      29.95R
HILLSDALE      CLOUDY    44  44 100 N7        29.95R
HOWELL         LGT RAIN  42  42  99 N5        29.98R

CITY           SKY/WX    TMP DP  RH WIND       PRES   REMARKS
JACKSON        CLOUDY    43  32  65 N5        29.97R
LAMBERTVILLE   CLOUDY    48  46  93 NE5       29.95R
LANSING        CLOUDY    42  40  92 N8        30.00R
LAPEER         LGT RAIN  43  42  97 NE7       29.97F
MASON          CLOUDY    42  41  95 N7        29.98S
MONROE         CLOUDY    46  46  97 NE3       29.94S
MT. CLEMENS    CLOUDY    46  46 100 NW9       29.95R FOG
PONTIAC        LGT RAIN  44  43  96 N8        29.96R FOG
PORT HOPE        N/A     41  39  93 N12       30.00R
PORT HURON     DRIZZLE   45  45 100 N3        29.95R
TRI CITIES     CLOUDY    43  37  79 N12       30.02S
MIDLAND        CLOUDY    41  35  79 N5        30.03S
TROY           CLOUDY    46  45  95 N5        29.97R
SAGINAW HB     CLOUDY    43  39  87 N12       30.01R
$$
MIZ043>046-050>051-056>058-064>065-071>073-077>080-021100-
SOUTHWEST LOWER MICHIGAN

CITY           SKY/WX    TMP DP  RH WIND       PRES   REMARKS
BATTLE CREEK   CLOUDY    43  41  93 NE10      29.98S
BENTON HARBOR  CLOUDY    45  42  89 NE6       30.01R
BIG RAPIDS     CLEAR     39  32  76 N5        30.03S
COLDWATER      CLOUDY    44  44  98 N6        29.97R
FREMONT        CLOUDY    42  34  74 N5        30.04S
HOLLAND        CLOUDY   N/A N/A N/A N7        30.02F
GRAND RAPIDS   CLOUDY    44  40  85 N8        30.02S
IONIA          CLOUDY    41  39  94 N9        30.00S
KALAMAZOO      CLOUDY    44  41  89 N8        29.99S
MARSHALL       CLOUDY    43  42  96 N3        29.98R
MOUNT PLEASANT MOCLDY    39  34  82 N3        30.03S
MUSKEGON       PTCLDY    43  34  70 N6        30.04F
SOUTH HAVEN    CLOUDY    43  42  96 NE9       30.01S
$$
MIZ016>042-021100-
NORTHERN LOWER MICHIGAN

CITY           SKY/WX    TMP DP  RH WIND       PRES   REMARKS
ALPENA         CLOUDY    37  35  92 CALM      30.06S
BEAVER ISLAND  CLOUDY    36  35  96 CALM      30.07S
BELLAIRE       PTCLDY    32  31  96 CALM      30.08S
CADILLAC       CLEAR     29  27  93 CALM      30.04S
CHARLEVOIX     CLOUDY    38  35  89 CALM      30.09F
FRANKFORT      CLOUDY    34  32  94 CALM      30.07F
GAYLORD        CLEAR     31  27  85 CALM      30.05S
GRAYLING       MOCLDY    28  28 100 CALM      30.06S
HARBOR SPRINGS CLOUDY    37  32  81 CALM      30.07S
HOUGHTON LAKE  MOCLDY    32  31  96 E3        30.05R
MANISTEE       CLEAR     34  28  80 CALM      30.07F
OSCODA         CLOUDY    38  36  91 N3        30.03S
PELLSTON       CLOUDY    33  31  92 CALM      30.07S
TRAVERSE CITY  CLEAR     33  31  92 CALM      30.06S
$$
MIZ007>008-015-021100-
EASTERN UPPER MICHIGAN

CITY           SKY/WX    TMP DP  RH WIND       PRES   REMARKS
KINROSS          N/A     45  34  65 S6        30.06F
MACKINAC ISLAN CLOUDY    41  33  74 CALM      30.07S
NEWBERRY       PTCLDY    38  34  83 N5        30.07R WCI  35
S. S. MARIE    CLEAR     42  33  70 CALM      30.07R
MUNISING         N/A     31  28  89 S5        30.09S WCI  26
$$
MIZ004>006-011>014-085-021100-
CENTRAL UPPER MICHIGAN

CITY           SKY/WX    TMP DP  RH WIND       PRES   REMARKS
MANISTIQUE     CLEAR     34  32  92 N3        30.07S
ESCANABA       CLEAR     37  30  75 NW6       30.09S WCI  33
MENOMINEE      CLEAR     36  30  80 CALM      30.10S
SAWYER-GWINN   CLEAR     32  28  88 N5        30.08S WCI  27
$$
MIZ001>003-009>011-084-021100-
WESTERN UPPER MICHIGAN

CITY           SKY/WX    TMP DP  RH WIND       PRES   REMARKS
IRON MOUNTAIN  CLEAR     32  26  78 CALM      30.10S
HOUGHTON       CLEAR     32  28  85 NW6       30.11S WCI  26
COPPER HARBOR    N/A     33  32  96 W5        30.12R WCI  29
IRONWOOD         N/A     28  27  93 CALM      30.11S
$$

ABBREVIATIONS USED IN REMARKS
   TC - TEMPERATURE IN CELSIUS
  WCI - WIND CHILL INDEX
   HX - HEAT INDEX
  VSB - VISIBILITY





USA.gov is the U.S. government's official web portal to all federal, state and local government web resources and services.